GW0890 Weather Reports


Display with metric or nautical units.
time (UTC)temp
F
wind
direction
speed
MPH
gust
MPH
rain 1hr
in
rain 24hr
in
rain mn
in
humidity
%
barometer
mb
20260903133052 78 267 1.0 5.0 0.00 0.00 0.00 96 1015.7
20260903131545 76 224 0.0 0.0 0.00 0.00 0.00 99 1015.9
20260903130044 74 224 0.0 0.0 0.00 0.00 0.00 99 1016.1
20260903124554 73 224 0.0 0.0 0.00 0.00 0.00 99 1016.1
20260903123041 72 224 0.0 0.0 0.00 0.00 0.00 99 1016.2
20260903121546 72 224 0.0 0.0 0.00 0.00 0.00 99 1016.2
20260903120037 71 224 0.0 0.0 0.00 0.00 0.00 99 1016.2
20260903114535 71 224 0.0 0.0 0.00 0.00 0.00 99 1016.0
20260903113032 70 224 0.0 0.0 0.00 0.00 0.00 99 1015.8
20260903111530 70 224 0.0 0.0 0.00 0.00 0.00 99 1015.8
20260903110028 70 224 0.0 0.0 0.00 0.00 0.00 99 1015.6
20260903104526 71 224 0.0 0.0 0.00 0.00 0.00 98 1015.4
20260903103023 71 224 0.0 0.0 0.00 0.00 0.00 99 1015.4
20260903101529 71 224 0.0 0.0 0.00 0.00 0.00 99 1015.2
20260903100025 71 224 0.0 0.0 0.00 0.00 0.00 99 1015.2
20260903094516 71 224 0.0 0.0 0.00 0.00 0.00 98 1015.1
20260903093016 71 224 0.0 0.0 0.00 0.00 0.00 98 1015.0
20260903091515 71 224 0.0 0.0 0.00 0.00 0.00 98 1015.0
20260903090014 71 224 0.0 0.0 0.00 0.00 0.00 98 1015.0
20260903084514 71 223 0.0 0.0 0.00 0.00 0.00 98 1015.0
20260903083011 72 223 0.0 0.0 0.00 0.00 0.00 98 1014.9
20260903081509 72 223 0.0 0.0 0.00 0.00 0.00 98 1014.9
20260903080008 72 223 0.0 0.0 0.00 0.00 0.00 98 1014.9
20260903074638 72 223 0.0 0.0 0.00 0.00 0.00 98 1014.9
20260903073044 72 223 0.0 0.0 0.00 0.00 0.00 98 1014.8
20260903071506 72 223 0.0 0.0 0.00 0.00 0.00 98 1014.8
20260903070006 73 223 0.0 0.0 0.00 0.00 0.00 98 1014.8
20260903064503 73 223 0.0 0.0 0.00 0.00 0.00 98 1014.9
20260903063125 73 223 0.0 0.0 0.00 0.00 0.00 98 1014.9
20260903061600 73 223 0.0 0.0 0.00 0.00 0.00 98 1015.0
20260903060059 73 223 0.0 0.0 0.00 0.00 0.00 98 1014.9
20260903054553 73 221 0.0 0.0 0.00 0.00 0.00 97 1014.8
20260903053056 74 221 0.0 0.0 0.00 0.00 0.00 97 1014.8
20260903051551 74 221 0.0 0.0 0.00 0.00 0.00 97 1014.8
20260903050050 74 221 0.0 0.0 0.00 0.00 0.00 97 1014.7
20260903044548 74 221 0.0 0.0 0.00 0.00 0.00 97 1014.6
20260903043101 74 221 0.0 0.0 0.00 0.00 0.00 97 1014.6
20260903041547 75 221 0.0 0.0 0.00 0.00 0.00 97 1014.6
20260903040047 75 221 0.0 0.0 0.00 0.00 0.00 97 1014.7
20260903034542 75 221 0.0 0.0 0.00 0.00 0.00 96 1014.7
20260903033041 75 221 0.0 0.0 0.00 0.00 0.00 96 1014.7
20260903031547 76 221 0.0 0.0 0.00 0.00 0.00 96 1014.8
20260903030041 76 221 0.0 0.0 0.00 0.00 0.00 96 1014.8
20260903024538 76 221 0.0 0.0 0.00 0.00 0.00 95 1014.9
20260903023038 76 220 0.0 2.0 0.00 0.00 0.00 95 1014.8
20260903021537 77 220 0.0 0.0 0.00 0.00 0.00 95 1014.7
20260903020045 77 221 0.0 2.0 0.00 0.00 0.00 95 1014.7
20260903014536 77 220 0.0 2.0 0.00 0.00 0.00 94 1014.8
20260903013005 78 220 0.0 2.0 0.00 0.00 0.00 93 1014.7
20260903011510 79 219 0.0 1.0 0.00 0.00 0.00 92 1014.6
20260903010038 79 219 0.0 2.0 0.00 0.00 0.00 91 1014.4
20260903004535 79 219 0.0 2.0 0.00 0.00 0.00 90 1014.3
20260903003004 80 219 1.0 4.0 0.00 0.00 0.00 89 1014.1
20260903001505 81 221 0.0 4.0 0.00 0.00 0.00 88 1014.1
20260903000040 82 225 3.0 5.0 0.00 0.00 0.00 86 1014.0
20260902234532 83 228 1.0 5.0 0.00 0.00 0.00 83 1013.9
20260902233007 85 245 2.0 5.0 0.00 0.00 0.00 78 1013.9
20260902231503 88 299 2.0 5.0 0.00 0.00 0.00 72 1014.0
20260902230105 90 304 1.0 4.0 0.00 0.00 0.00 69 1014.2
20260902224558 93 317 1.0 2.0 0.00 0.00 0.00 63 1014.2
20260902223115 93 319 1.0 5.0 0.00 0.00 0.00 62 1014.1
20260902221556 94 21 1.0 7.0 0.00 0.00 0.00 59 1014.1
20260902220054 93 316 1.0 8.0 0.00 0.00 0.00 59 1014.1
20260902214554 94 332 3.0 9.0 0.00 0.00 0.00 56 1014.2
20260902213052 95 306 1.0 5.0 0.00 0.00 0.00 55 1014.2
20260902211551 95 41 2.0 5.0 0.00 0.00 0.00 54 1014.2
20260902210048 95 40 5.0 8.0 0.00 0.00 0.00 54 1014.3
20260902204610 95 26 6.0 9.0 0.00 0.00 0.00 54 1014.5
20260902203044 95 30 4.0 8.0 0.00 0.00 0.00 55 1014.6
20260902201542 95 24 1.0 9.0 0.00 0.00 0.00 55 1014.9
20260902200041 95 355 2.0 8.0 0.00 0.00 0.00 55 1015.1
20260902194536 95 300 1.0 9.0 0.00 0.00 0.00 53 1015.2
20260902193036 95 360 5.0 9.0 0.00 0.00 0.00 54 1015.3
20260902191534 95 294 3.0 8.0 0.00 0.00 0.00 54 1015.3
20260902190035 95 27 5.0 8.0 0.00 0.00 0.00 53 1015.3
20260902184534 95 302 1.0 6.0 0.00 0.00 0.00 59 1015.4
20260902183049 95 360 3.0 10.0 0.00 0.00 0.00 56 1015.5
20260902181528 94 360 3.0 10.0 0.00 0.00 0.00 56 1015.7
20260902180025 95 47 5.0 9.0 0.00 0.00 0.00 56 1015.8
20260902174526 94 85 0.0 5.0 0.00 0.00 0.00 60 1015.8
20260902173028 94 84 2.0 6.0 0.00 0.00 0.00 59 1016.1
20260902171520 93 34 5.0 7.0 0.00 0.00 0.00 61 1016.4
20260902170015 92 315 2.0 8.0 0.00 0.00 0.00 64 1016.6
20260902164520 92 309 5.0 9.0 0.00 0.00 0.00 66 1016.9
20260902163009 91 309 3.0 9.0 0.00 0.00 0.00 67 1017.2
20260902161510 91 24 4.0 8.0 0.00 0.00 0.00 66 1017.4
20260902160006 90 120 5.0 7.0 0.00 0.00 0.00 69 1017.3
20260902154602 88 67 2.0 8.0 0.00 0.00 0.00 70 1017.5
20260902153107 88 47 2.0 9.0 0.00 0.00 0.00 71 1017.4
20260902151555 87 68 4.0 7.0 0.00 0.00 0.00 74 1017.4
20260902150048 85 80 5.0 9.0 0.00 0.00 0.00 76 1017.4
20260902144546 84 20 3.0 5.0 0.00 0.00 0.00 80 1017.3
20260902143041 82 313 0.0 0.0 0.00 0.00 0.00 86 1017.2
20260902141538 81 57 0.0 5.0 0.00 0.00 0.00 87 1017.3
20260902140004 79 284 0.0 2.0 0.00 0.00 0.00 90 1017.2
20260902134501 77 285 0.0 4.0 0.00 0.00 0.00 93 1017.1